Location: Newark
(12.4436°N, 0.6167°W)
Time: 02:53:41
(UTC+00:00)

Vanguard 1 - Pass Details

Date: 11 December 2019
Orbit: 651 x 3833 km, 34.2° (Epoch: 25 January)

Event Time Altitude Azimuth Distance (km) Brightness Sun altitude
Rises 00:42:18 0° 222° (SW) 5,921 - -74.7°
Reaches altitude 10° 00:45:37 10° 219° (SW) 5,257 - -74.1°
Maximum altitude 01:02:56 66° 139° (SE) 3,738 - -70.8°
Exits shadow 01:13:48 40° 75° (ENE) 4,820 13.4 -68.6°
Drops below altitude 10° 01:26:21 10° 62° (ENE) 6,831 14.4 -66.0°
Sets 01:31:24 0° 60° (ENE) 7,692 14.8 -64.9°
